Hourly Data Report for October 03, 2017

All times are specified in Local Standard Time (LST). Add 1 hour to adjust for Daylight Saving Time where and when it is observed.

CAPE DORSET A
NUNAVUT

64°13'49.000" N
76°31'30.000" W
48.20 m
2400637
71366
YTE

Download Data

Hourly Data (October 2017)
Hourly Data Report for October 3, 2017
Temp Definition
°C
Dew Point Temp Definition
°C
Rel Hum Definition
%
Wind Dir Definition
10's deg

Wind Spd Definition
km/h
Visibility Definition
km
Stn Press Definition
kPa
Hmdx Definition


Wind Chill Definition


Weather Definition


TIME
00:00 Legend Double Dagger 2.3 1.9 97 19 30 11.3 99.33     Rain
01:00 Legend Double Dagger 2.5 1.8 95 20 43 11.3 99.16     Rain
02:00 Legend Double Dagger 2.4 1.8 96 19 32 11.3 99.02     Rain
03:00 Legend Double Dagger 2.3 1.9 97 19 24 12.9 98.87     Rain
04:00 Legend Double Dagger 2.3 2.0 98 19 22 12.9 98.74     Rain
05:00 Legend Double Dagger 2.1 1.8 98 24 21 16.1 98.60     Rain
06:00 Legend Double Dagger 1.1 1.0 99 26 13 16.1 98.58     Rain
07:00 Legend Double Dagger 0.6 0.3 98 32 17 9.7 98.61     Snow
08:00 Legend Double Dagger 0.4 -1.0 91 31 18 16.1 98.65     LegendNANA
09:00 Legend Double Dagger -0.5 -2.1 89 30 32 16.1 98.70   -7 LegendNANA
10:00 Legend Double Dagger -1.3 -3.5 85 30 41 16.1 98.75   -9 LegendNANA
11:00 Legend Double Dagger -1.5 -3.7 85 29 41 16.1 98.75   -9 LegendNANA
12:00 Legend Double Dagger -1.5 -4.4 81 29 39 16.1 98.80   -9 LegendNANA
13:00 Legend Double Dagger -0.8 -3.8 80 28 30 16.1 98.80   -8 LegendNANA
14:00 Legend Double Dagger -0.9 -4.6 76 28 34 16.1 98.83   -8 LegendNANA
15:00 Legend Double Dagger -1.4 -3.3 87 28 45 4.8 98.82   -10 Snow
16:00 Legend Double Dagger -1.5 -5.5 74 26 39 16.1 98.84   -9 LegendNANA
17:00 Legend Double Dagger -1.8 -4.2 84 27 34 16.1 98.87   -9 LegendNANA
18:00 Legend Double Dagger -1.6 -4.5 81 27 37 16.1 98.85   -9 LegendNANA
19:00 Legend Double Dagger -1.9 -4.5 83 25 34 16.1 98.84   -9 Snow
20:00 Legend Double Dagger -1.4 -4.8 78 27 39 16.1 98.80   -9 LegendNANA
21:00 Legend Double Dagger -2.1 -4.4 84 26 39 6.4 98.80   -10 Snow
22:00 Legend Double Dagger -3.0 -4.1 92 28 46 3.2 98.82   -12 Snow
23:00 Legend Double Dagger -2.8 -4.1 91 28 39 8.1 98.85   -11 Snow

Notes on Data Quality.

Legend

  • E = Estimated
  • M = Missing
  • NA = Not Available
  • ‡ = Partner data that is not subject to review by the National Climate Archives
Date modified: